Flag for Morocco Weather past 2 weeks in Tangier, Morocco

Now
72 °F

Passing clouds.


Feels Like: 69 °F
Forecast: 71 / 90 °F
Wind: 7 mph from East

Location: Tanger Aerodrome

Current Time: Jul 4, 2015 at 2:27:02 AM

Latest Report: Jul 4, 2015 at 2:00 AM


Visibility: 5 mi

Pressure: 30.07 "Hg

Humidity: 88%

Dew point: 68 °F

Location of TangierLocation

Historic Weather in Tangier — Graph

°F

Tangier temperature yesterday

Maximum temperature yesterday: 88 °F (at 2:00 PM)
Minimum temperature yesterday: 66 °F (at 1:00 AM)
Average temperature yesterday: 76 °F

Past Weeks' High & Low Weather Summary

 TemperatureHumidityPressure
High99 °F (Jun 27, 12:00 PM)94% (Jun 21, 4:30 AM)30.12 "Hg (Jun 21, 4:30 AM)
Low61 °F (Jun 25, 12:30 AM)10% (Jun 27, 6:00 PM)29.89 "Hg (Jun 19, 5:30 PM)
Average74 °F63%30.03 "Hg
* Reported Jun 19 1:00 AM — Jul 4 1:30 AM, Tangier, Weather by CustomWeather, © 2015

Note: Actual official high and low records may vary slightly from our data, if they occured in-between our weather recording intervals... More about our weather records

Advertising

Tangier weather history for previous 24 hours

 ConditionsComfort  
Time TempWeatherWind HumidityBarometerVisibility
1:30 AM
Sat, Jul 4
72 °FPassing clouds.6 mph88%30.07 "Hg5 mi
1:00 AM72 °FPassing clouds.8 mph88%30.09 "Hg5 mi
12:30 AM72 °FPassing clouds.8 mph88%30.09 "Hg5 mi
12:00 AM72 °FPassing clouds.2 mph88%30.09 "Hg5 mi
11:00 PM
Fri, Jul 3
73 °FPassing clouds.6 mph83%30.09 "Hg5 mi
10:30 PM73 °FPassing clouds.8 mph89%30.09 "Hg5 mi
10:00 PM73 °FPassing clouds.5 mph83%30.09 "Hg5 mi
9:30 PM73 °FPassing clouds.8 mph89%30.09 "HgN/A
9:00 PM75 °FPassing clouds.7 mph78%30.07 "HgN/A
8:30 PM75 °FClear.12 mph78%30.07 "Hg10 mi
8:00 PM75 °FClear.15 mph78%30.04 "Hg10 mi
7:30 PM77 °FSunny.17 mph69%30.04 "Hg10 mi
7:00 PM79 °FSunny.21 mph70%30.04 "Hg10 mi
6:30 PM81 °FSunny.21 mph66%30.01 "Hg10 mi
6:00 PM81 °FSunny.17 mph62%30.01 "Hg10 mi
5:30 PM82 °FSunny.16 mph62%30.01 "Hg10 mi
5:00 PM82 °FSunny.20 mph62%30.01 "Hg10 mi
4:30 PM84 °FSunny.21 mph55%30.01 "Hg10 mi
4:00 PM84 °FSunny.24 mph55%30.01 "Hg10 mi
3:30 PM86 °FSunny.25 mph52%30.01 "Hg10 mi
3:00 PM86 °FSunny.25 mph52%30.01 "Hg10 mi
2:30 PM86 °FSunny.24 mph52%30.01 "Hg10 mi
2:00 PM88 °FSunny.20 mph49%30.04 "Hg10 mi
1:30 PM84 °FSunny.12 mph48%30.04 "Hg10 mi
1:00 PM84 °FPassing clouds.10 mph45%30.04 "HgN/A
12:30 PM84 °FPassing clouds.13 mph48%30.04 "HgN/A
12:00 PM84 °FPassing clouds.6 mph48%30.04 "HgN/A
11:30 AM82 °FSunny.8 mph51%30.04 "Hg10 mi
11:00 AM82 °FSunny.10 mph51%30.04 "Hg10 mi
10:30 AM81 °FPassing clouds.8 mph54%30.04 "HgN/A
10:00 AM81 °FSunny.9 mph54%30.04 "Hg10 mi
9:30 AM82 °FPassing clouds.5 mph48%30.04 "HgN/A
9:00 AM82 °FPassing clouds.5 mph45%30.04 "HgN/A
8:30 AM81 °FPassing clouds.6 mph51%30.04 "HgN/A
8:00 AM79 °FSunny.1 mph54%30.04 "Hg10 mi
7:30 AM75 °FSunny.1 mph69%30.04 "Hg10 mi
7:00 AM72 °FClear.No wind78%30.04 "Hg1 mi
6:30 AM70 °FClear.1 mph83%30.01 "Hg1 mi
6:00 AM66 °FSunny.2 mph88%30.01 "Hg10 mi
5:30 AM66 °FClear.3 mph83%30.01 "Hg1 mi
5:00 AM66 °FClear.2 mph83%30.01 "Hg10 mi
4:30 AM66 °FClear.No wind83%30.01 "Hg1 mi
4:00 AM68 °FClear.2 mph83%30.01 "Hg10 mi
3:30 AM68 °FClear.3 mph78%30.01 "Hg10 mi
3:00 AM68 °FClear.5 mph78%30.01 "Hg10 mi
2:30 AM66 °FClear.5 mph78%30.04 "Hg3 mi
2:00 AM66 °FClear.2 mph73%30.04 "Hg10 mi
Weather by CustomWeather, © 2015

See weather overviewHow to use our weather pages